Список аэропортов
Фактическая погода:

21 августа, 07:00
Температура: +23°C (+23.0*)
Ветер: западный 2 м/с
Давление: *757 мм
неб. 900 м
неб. облачность
1500 м
Время (МСК)Темп. СВетерВлажностьДавлениеОблачностьОсадки
03:00+25З, 3 м/с76%1008 гПамалооблачно
04:00+25З, 3 м/с76%1008 гПаясно
05:00+24З, 3 м/с75%1008 гПаясно
06:00+24З, 3 м/с76%1008 гПаясно
07:00+23З, 3 м/с75%1009 гПаясно
08:00+25З, 3 м/с62%1009 гПаясно
09:00+27ЮЗ, 3 м/с56%1009 гПамалооблачно
10:00+28ЮЗ, 3 м/с58%1009 гПас прояснениями
11:00+29Ю, 5 м/с62%1009 гПас прояснениями
12:00+29ЮЗ, 7 м/с60%1009 гПас прояснениями
13:00+30ЮЗ, 8 м/с58%1008 гПас прояснениями
14:00+30ЮЗ, 9 м/с58%1008 гПамалооблачно
15:00+30ЮЗ, 10 м/с60%1007 гПаясно
16:00+30ЮЗ, 10 м/с61%1007 гПамалооблачно
17:00+29ЮЗ, 9 м/с62%1007 гПамалооблачно
18:00+29ЮЗ, 9 м/с65%1007 гПас прояснениями
19:00+28ЮЗ, 7 м/с67%1007 гПас прояснениями
20:00+28ЮЗ, 6 м/с68%1007 гПамалооблачно
21:00+28ЮЗ, 6 м/с69%1008 гПаясно
22:00+27ЮЗ, 4 м/с70%1008 гПаясно
23:00+27З, 3 м/с73%1008 гПаясно
22 августа
00:00+26СЗ, 2 м/с78%1008 гПаясно
01:00+26СЗ, 2 м/с83%1007 гПаясно
02:00+26СЗ, 3 м/с81%1007 гПаясно
03:00+25СЗ, 3 м/с78%1007 гПаясно
04:00+25С, 3 м/с79%1007 гПаясно
05:00+24СЗ, 2 м/с82%1007 гПаясно
06:00+24З, 2 м/с84%1007 гПаясно
07:00+24З, 2 м/с86%1008 гПаясно
08:00+27З, 1 м/с73%1008 гПаясно
09:00+28Ю, 1 м/с65%1008 гПаясно
10:00+29Ю, 2 м/с61%1008 гПаясно
11:00+30Ю, 4 м/с57%1008 гПаясно
12:00+31ЮЗ, 7 м/с57%1008 гПаясно
13:00+31ЮЗ, 9 м/с61%1008 гПаясно
14:00+31ЮЗ, 9 м/с56%1007 гПаясно
15:00+31ЮЗ, 10 м/с47%1007 гПаясно
16:00+30ЮЗ, 9 м/с49%1006 гПаясно
17:00+30ЮЗ, 9 м/с54%1006 гПаясно
18:00+29ЮЗ, 8 м/с60%1006 гПаясно
19:00+29ЮЗ, 7 м/с63%1006 гПамалооблачно
20:00+28ЮЗ, 4 м/с65%1006 гПамалооблачно
21:00+28З, 2 м/с63%1007 гПаясно
22:00+27С, 2 м/с64%1007 гПаясно
23:00+27С, 2 м/с64%1007 гПаясно
23 августа
00:00+26С, 3 м/с62%1006 гПаясно
01:00+26СЗ, 2 м/с61%1006 гПаясно
02:00+25СЗ, 2 м/с62%1006 гПаясно
03:00+24З, 2 м/с70%1006 гПаясно